This is the latest recevied weather packets stored in our database for station/object DO0SOB-11. If no packets are shown the sender has not sent any weather packets the latest 10 day(s).
| Time | Temp. | Humidity | Pressure | Rain* | Wind** | Luminosity | Snow |
|---|---|---|---|---|---|---|---|
| 1777113828 | 12.78° C | 100% | 980.6 hPa | - | - | - | - |
| 1777112928 | 11.67° C | 100% | 980.4 hPa | - | - | - | - |
| 1777112028 | 11.11° C | 100% | 980.2 hPa | - | - | - | - |
| 1777111128 | 8.89° C | 100% | 980.1 hPa | - | - | - | - |
| 1777110228 | 7.78° C | 100% | 980.2 hPa | - | - | - | - |
| 1777109328 | 7.78° C | 100% | 980.1 hPa | - | - | - | - |
| 1777108428 | 7.78° C | 100% | 979.9 hPa | - | - | - | - |
| 1777107528 | 6.11° C | 100% | 979.9 hPa | - | - | - | - |
| 1777106628 | 5° C | 100% | 980 hPa | - | - | - | - |
| 1777105728 | 8.33° C | 100% | 980.1 hPa | - | - | - | - |
| 1777104828 | 5° C | 100% | 980.7 hPa | - | - | - | - |
| 1777103928 | 4.44° C | 100% | 981.2 hPa | - | - | - | - |
| 1777103028 | 3.89° C | 100% | 981.5 hPa | - | - | - | - |
| 1777102127 | 3.89° C | 100% | 981.7 hPa | - | - | - | - |
| 1777101227 | 3.89° C | 100% | 981.6 hPa | - | - | - | - |
| 1777100327 | 3.89° C | 100% | 981.6 hPa | - | - | - | - |
| 1777099427 | 3.89° C | 100% | 981.5 hPa | - | - | - | - |
| 1777098527 | 3.33° C | 100% | 981.4 hPa | - | - | - | - |
| 1777097627 | 3.33° C | 100% | 981 hPa | - | - | - | - |
| 1777096727 | 3.33° C | 100% | 980.9 hPa | - | - | - | - |
| 1777095827 | 2.78° C | 100% | 980.6 hPa | - | - | - | - |
| 1777094927 | 3.33° C | 100% | 980.4 hPa | - | - | - | - |
| 1777094027 | 2.78° C | 100% | 980.2 hPa | - | - | - | - |
| 1777093127 | 3.33° C | 100% | 979.9 hPa | - | - | - | - |
| 1777092227 | 2.78° C | 100% | 979.8 hPa | - | - | - | - |
* Rain since midnight (hover to see other rain measurements)
** Current wind speed in m/s (hover to see current wind gust speed)